Location: Newark
(43.4100°N, 74.9600°W)
Time: 06:13:50
(UTC+00:00)

ISS - Pass Details

Date: 20 September 2019
Orbit: 411 x 421 km, 51.6° (Epoch: 22 October)

Event Time Altitude Azimuth Distance (km) Brightness Sun altitude
Rises 00:41:39 0° 230° (SW) 2,332 0.4 -18.3°
Reaches altitude 10° 00:43:44 10° 227° (SW) 1,473 -0.7 -18.7°
Enters shadow 00:46:45 64° 179° (S) 460 -3.8 -19.2°
